Flag for Russia Weather past 2 weeks in Penza, Russia

Now
66 °F

Clear.


Feels Like: 66 °F
Forecast: 54 / 78 °F
Wind: 8 mph from South

Location: Saratov / Tsentralny

Current Time: May 22, 2015 at 10:22:18 PM

Latest Report: May 22, 2015 at 10:00 PM


Visibility: 10 mi

Pressure: 30.15 "Hg

Humidity: 40%

Dew point: 41 °F

Location of PenzaLocation

Historic Weather in Penza — Graph

°F

Penza temperature yesterday

Maximum temperature yesterday: 73 °F (at 2:00 PM)
Minimum temperature yesterday: 54 °F (at 2:00 AM)
Average temperature yesterday: 64 °F

Past Weeks' High & Low Weather Summary

 TemperatureHumidityPressure
High77 °F (May 22, 4:00 PM)100% (May 12, 6:00 AM)30.21 "Hg (May 12, 6:00 AM)
Low45 °F (May 10, 2:30 AM)19% (May 22, 1:00 PM)29.50 "Hg (May 18, 12:00 AM)
Average57 °F59%29.87 "Hg
* Reported May 7 9:00 PM — May 22 9:00 PM, Penza, Weather by CustomWeather, © 2015

Note: Actual official high and low records may vary slightly from our data, if they occured in-between our weather recording intervals... More about our weather records

Advertising

Penza weather history for previous 24 hours

 ConditionsComfort  
Time TempWeatherWind HumidityBarometerVisibility
9:00 PM
Fri, May 22
68 °FClear.8 mph35%30.15 "Hg10 mi
8:30 PM73 °FSunny.8 mph29%30.12 "Hg10 mi
8:00 PM73 °FSunny.6 mph29%30.12 "Hg10 mi
7:30 PM73 °FSunny.3 mph25%30.12 "Hg10 mi
7:00 PM73 °FSunny.6 mph25%30.12 "Hg10 mi
6:30 PM75 °FSunny.8 mph25%30.15 "Hg10 mi
6:00 PM75 °FSunny.8 mph25%30.15 "Hg10 mi
5:30 PM75 °FSunny.6 mph24%30.15 "Hg10 mi
5:00 PM75 °FSunny.8 mph24%30.15 "Hg10 mi
4:30 PM77 °FSunny.8 mph21%30.15 "Hg10 mi
4:00 PM77 °FSunny.8 mph21%30.15 "Hg10 mi
3:30 PM75 °FSunny.8 mph22%30.18 "Hg10 mi
3:00 PM75 °FSunny.8 mph22%30.18 "Hg10 mi
2:30 PM75 °FSunny.1 mph27%30.18 "Hg10 mi
2:00 PM75 °FSunny.3 mph27%30.18 "Hg10 mi
1:30 PM75 °FSunny.6 mph19%30.18 "Hg10 mi
1:00 PM75 °FSunny.8 mph19%30.18 "Hg10 mi
12:30 PM75 °FSunny.6 mph29%30.21 "Hg10 mi
12:00 PM75 °FSunny.10 mph29%30.21 "Hg10 mi
11:30 AM73 °FSunny.8 mph38%30.21 "Hg10 mi
11:00 AM73 °FSunny.8 mph38%30.21 "Hg10 mi
10:30 AM73 °FSunny.1 mph38%30.21 "Hg10 mi
10:00 AM73 °FSunny.1 mph38%30.21 "Hg10 mi
9:30 AM72 °FSunny.1 mph41%30.21 "Hg10 mi
9:00 AM72 °FSunny.1 mph41%30.21 "Hg10 mi
8:30 AM66 °FSunny.3 mph56%30.21 "Hg10 mi
8:00 AM66 °FSunny.3 mph56%30.21 "Hg10 mi
7:30 AM64 °FSunny.1 mph60%30.18 "Hg10 mi
7:00 AM64 °FSunny.6 mph60%30.18 "Hg10 mi
6:30 AM59 °FSunny.6 mph72%30.18 "Hg10 mi
6:00 AM59 °FSunny.6 mph72%30.18 "Hg10 mi
5:30 AM55 °FSunny.6 mph72%30.18 "Hg10 mi
5:00 AM55 °FSunny.6 mph72%30.18 "Hg10 mi
4:30 AM55 °FClear.1 mph72%30.18 "Hg10 mi
4:00 AM55 °FClear.1 mph72%30.18 "Hg10 mi
3:30 AM59 °FClear.1 mph68%30.15 "Hg10 mi
3:00 AM59 °FClear.3 mph68%30.15 "Hg10 mi
2:30 AM59 °FClear.3 mph68%30.15 "Hg10 mi
2:00 AM59 °FClear.1 mph68%30.15 "Hg10 mi
1:30 AM59 °FClear.1 mph63%30.15 "Hg10 mi
1:00 AM59 °FClear.1 mph63%30.15 "Hg10 mi
12:30 AM61 °FClear.1 mph63%30.12 "Hg10 mi
12:00 AM61 °FClear.No wind63%30.12 "Hg10 mi
11:30 PM
Thu, May 21
61 °FClear.1 mph59%30.12 "Hg10 mi
11:00 PM61 °FClear.No wind59%30.12 "Hg10 mi
10:30 PM63 °FClear.No wind56%30.12 "Hg10 mi
10:00 PM63 °FClear.No wind56%30.12 "Hg10 mi
Weather by CustomWeather, © 2015

See weather overviewHow to use our weather pages